26.02.2024 02:00:00 0,10
26.02.2024 09:15:00 0,10
26.02.2024 09:30:00 0,13
26.02.2024 09:45:00 0,10
26.02.2024 10:45:00 0,10
26.02.2024 11:00:00 0,13
26.02.2024 11:15:00 0,13
26.02.2024 11:30:00 0,10
26.02.2024 12:00:00 0,10
26.02.2024 12:15:00 0,13
26.02.2024 13:45:00 0,13
26.02.2024 14:00:00 0,10
26.02.2024 15:30:00 0,10
26.02.2024 15:45:00 0,08
26.02.2024 16:00:00 0,10
26.02.2024 18:45:00 0,10
26.02.2024 19:00:00 0,13
26.02.2024 19:15:00 0,10
27.02.2024 11:00:00 0,10
27.02.2024 11:15:00 0,13
27.02.2024 11:30:00 0,13
27.02.2024 11:45:00 0,10
27.02.2024 15:30:00 0,10
27.02.2024 15:45:00 0,08
27.02.2024 16:00:00 0,10
27.02.2024 18:45:00 0,10
27.02.2024 19:00:00 0,13
27.02.2024 19:15:00 0,10
28.02.2024 07:30:00 0,10
28.02.2024 07:45:00 0,08
28.02.2024 08:00:00 0,10
28.02.2024 18:45:00 0,10
28.02.2024 19:00:00 0,13
28.02.2024 19:15:00 0,10
29.02.2024 08:00:00 0,10
29.02.2024 08:15:00 0,08
29.02.2024 08:30:00 0,10
29.02.2024 13:15:00 0,10
29.02.2024 13:30:00 0,13
29.02.2024 13:45:00 0,10
29.02.2024 19:30:00 0,10
29.02.2024 19:45:00 0,13
29.02.2024 20:00:00 0,10
01.03.2024 07:45:00 0,10
01.03.2024 08:00:00 0,08
01.03.2024 08:15:00 0,08
01.03.2024 08:30:00 0,10
01.03.2024 18:45:00 0,10
01.03.2024 19:00:00 0,13
01.03.2024 19:15:00 0,10
02.03.2024 00:45:00 0,10
02.03.2024 01:00:00 0,08
02.03.2024 01:15:00 0,10
02.03.2024 12:30:00 0,10
02.03.2024 12:45:00 0,08
02.03.2024 13:00:00 0,10
02.03.2024 18:30:00 0,10
02.03.2024 18:45:00 0,08
02.03.2024 19:15:00 0,08
02.03.2024 19:30:00 0,10
02.03.2024 19:45:00 0,10
02.03.2024 20:00:00 0,08
02.03.2024 20:15:00 0,10
02.03.2024 20:30:00 0,08
02.03.2024 20:45:00 0,10
02.03.2024 21:00:00 0,10
02.03.2024 21:15:00 0,08
02.03.2024 21:30:00 0,10
02.03.2024 21:45:00 0,08
02.03.2024 22:00:00 0,10
03.03.2024 04:00:00 0,10
03.03.2024 04:15:00 0,08
03.03.2024 04:30:00 0,10
03.03.2024 06:00:00 0,10
03.03.2024 06:15:00 0,08
03.03.2024 06:30:00 0,10
03.03.2024 07:30:00 0,10
03.03.2024 07:45:00 0,08
03.03.2024 08:00:00 0,10
03.03.2024 09:00:00 0,10
03.03.2024 09:15:00 0,08
03.03.2024 09:30:00 0,10
03.03.2024 13:15:00 0,10
03.03.2024 13:30:00 0,13
03.03.2024 13:45:00 0,10
03.03.2024 14:00:00 0,10
03.03.2024 14:15:00 0,13
03.03.2024 14:30:00 0,10
03.03.2024 16:30:00 0,10
03.03.2024 16:45:00 0,08
03.03.2024 17:00:00 0,10
03.03.2024 17:15:00 0,08
03.03.2024 17:30:00 0,10
03.03.2024 17:45:00 0,08
03.03.2024 18:00:00 0,08
03.03.2024 18:15:00 0,10
03.03.2024 18:30:00 0,10
03.03.2024 18:45:00 0,08
03.03.2024 19:00:00 0,10
03.03.2024 19:15:00 0,10
03.03.2024 19:30:00 0,08
03.03.2024 19:45:00 0,08
03.03.2024 20:00:00 0,10
03.03.2024 20:15:00 0,08
03.03.2024 22:45:00 0,08
03.03.2024 23:00:00 0,10
03.03.2024 23:45:00 0,10
04.03.2024 00:00:00 0,08
04.03.2024 00:15:00 0,10
04.03.2024 00:30:00 0,10
04.03.2024 00:45:00 0,08
04.03.2024 01:00:00 0,10
04.03.2024 01:15:00 0,08
04.03.2024 08:15:00 0,08
04.03.2024 08:30:00 0,10
04.03.2024 09:00:00 0,10
04.03.2024 09:15:00 0,08
04.03.2024 09:30:00 0,10
04.03.2024 16:15:00 0,10
04.03.2024 16:30:00 0,08
04.03.2024 18:00:00 0,08
04.03.2024 18:15:00 0,10
04.03.2024 18:30:00 0,10
04.03.2024 18:45:00 0,08
05.03.2024 09:30:00 0,08
05.03.2024 09:45:00 0,10
05.03.2024 14:30:00 0,10
05.03.2024 14:45:00 0,08
05.03.2024 15:45:00 0,08
05.03.2024 16:00:00 0,10
05.03.2024 16:15:00 0,08
05.03.2024 17:45:00 0,08
05.03.2024 18:00:00 0,10
05.03.2024 18:15:00 0,08
06.03.2024 07:00:00 0,08
06.03.2024 07:15:00 0,10
06.03.2024 07:30:00 0,08
06.03.2024 07:45:00 0,10
06.03.2024 08:00:00 0,10
06.03.2024 08:15:00 0,08
06.03.2024 08:30:00 0,10
06.03.2024 08:45:00 0,08
06.03.2024 09:00:00 0,10
06.03.2024 09:15:00 0,10
06.03.2024 09:30:00 0,08
06.03.2024 09:45:00 0,08
06.03.2024 10:00:00 0,10
06.03.2024 10:15:00 0,08
06.03.2024 10:30:00 0,08
06.03.2024 10:45:00 0,10
06.03.2024 11:00:00 0,08
06.03.2024 11:15:00 0,10
06.03.2024 13:45:00 0,10
06.03.2024 14:00:00 0,08
06.03.2024 14:15:00 0,10
06.03.2024 14:30:00 0,08
06.03.2024 17:00:00 0,08
06.03.2024 17:15:00 0,10
06.03.2024 17:30:00 0,08
06.03.2024 18:00:00 0,08
06.03.2024 18:15:00 0,16
06.03.2024 18:30:00 0,10
06.03.2024 18:45:00 0,10
06.03.2024 19:00:00 0,08
06.03.2024 19:15:00 0,08
06.03.2024 19:30:00 0,10
06.03.2024 19:45:00 0,08
06.03.2024 20:00:00 0,08
06.03.2024 20:15:00 0,10
06.03.2024 20:30:00 0,10
06.03.2024 20:45:00 0,08
07.03.2024 00:45:00 0,08
07.03.2024 01:00:00 0,10
07.03.2024 01:30:00 0,10
07.03.2024 01:45:00 0,08
07.03.2024 04:00:00 0,08
07.03.2024 04:15:00 0,10
07.03.2024 04:30:00 0,08
07.03.2024 04:45:00 0,10
07.03.2024 05:00:00 0,08
07.03.2024 05:45:00 0,08
07.03.2024 06:00:00 0,10
07.03.2024 06:15:00 0,08
07.03.2024 07:45:00 0,08
07.03.2024 08:00:00 0,06
07.03.2024 08:15:00 0,02
07.03.2024 08:30:00 0,08
07.03.2024 10:15:00 0,08
07.03.2024 10:30:00 0,10
07.03.2024 10:45:00 0,08
07.03.2024 19:15:00 0,08
07.03.2024 19:30:00 0,10
07.03.2024 19:45:00 0,08
07.03.2024 21:15:00 0,08
07.03.2024 21:30:00 0,10
07.03.2024 21:45:00 0,08
07.03.2024 22:00:00 0,08
07.03.2024 22:15:00 0,10
08.03.2024 02:45:00 0,10
08.03.2024 03:00:00 0,08
08.03.2024 03:15:00 0,08
08.03.2024 03:30:00 0,10
08.03.2024 06:00:00 0,10
08.03.2024 06:15:00 0,08
08.03.2024 06:30:00 0,10
08.03.2024 07:00:00 0,10
08.03.2024 07:15:00 0,06
08.03.2024 07:30:00 0,10
08.03.2024 08:15:00 0,10
08.03.2024 08:30:00 0,08
08.03.2024 08:45:00 0,10
08.03.2024 10:30:00 0,10
08.03.2024 10:45:00 0,08
08.03.2024 11:00:00 0,10
08.03.2024 11:15:00 0,10
08.03.2024 11:30:00 0,08
08.03.2024 11:45:00 0,08
08.03.2024 12:00:00 0,10
08.03.2024 16:30:00 0,10
08.03.2024 16:45:00 0,08
08.03.2024 17:00:00 0,10
08.03.2024 17:15:00 0,08
08.03.2024 17:30:00 0,10
08.03.2024 18:00:00 0,10
08.03.2024 18:15:00 0,08
08.03.2024 18:45:00 0,08
08.03.2024 19:00:00 0,13
08.03.2024 19:15:00 0,10
08.03.2024 20:00:00 0,10
08.03.2024 20:15:00 0,08
08.03.2024 20:30:00 0,10
08.03.2024 20:45:00 0,08
08.03.2024 21:00:00 0,08
08.03.2024 21:15:00 0,10
08.03.2024 21:30:00 0,08
08.03.2024 21:45:00 0,08
08.03.2024 22:00:00 0,10
08.03.2024 23:00:00 0,10
08.03.2024 23:15:00 0,08
08.03.2024 23:30:00 0,10
08.03.2024 23:45:00 0,10
09.03.2024 00:00:00 0,08
09.03.2024 00:15:00 0,10
09.03.2024 00:30:00 0,08
09.03.2024 00:45:00 0,10
09.03.2024 01:30:00 0,10
09.03.2024 01:45:00 0,08
09.03.2024 02:00:00 0,10
09.03.2024 02:15:00 0,08
09.03.2024 02:30:00 0,08
09.03.2024 02:45:00 0,10
09.03.2024 03:15:00 0,10
09.03.2024 03:30:00 0,08
09.03.2024 04:00:00 0,08
09.03.2024 04:15:00 0,10
09.03.2024 04:45:00 0,10
09.03.2024 05:00:00 0,08
09.03.2024 05:15:00 0,10
09.03.2024 05:30:00 0,08
09.03.2024 05:45:00 0,10
09.03.2024 06:00:00 0,10
09.03.2024 06:15:00 0,08
09.03.2024 07:00:00 0,08
09.03.2024 07:15:00 0,10
09.03.2024 07:30:00 0,10
09.03.2024 07:45:00 0,08
09.03.2024 08:15:00 0,08
09.03.2024 08:30:00 0,10
09.03.2024 08:45:00 0,08
09.03.2024 10:00:00 0,08
09.03.2024 10:15:00 0,10
09.03.2024 10:30:00 0,10
09.03.2024 10:45:00 0,08
09.03.2024 11:00:00 0,08
09.03.2024 11:15:00 0,10
09.03.2024 11:30:00 0,10
09.03.2024 11:45:00 0,08
09.03.2024 12:00:00 0,08
09.03.2024 12:15:00 0,10
09.03.2024 12:30:00 0,08
09.03.2024 12:45:00 0,10
09.03.2024 13:00:00 0,08
09.03.2024 13:15:00 0,10
09.03.2024 13:30:00 0,10
09.03.2024 13:45:00 0,08
09.03.2024 14:00:00 0,08
09.03.2024 14:15:00 0,10
09.03.2024 14:30:00 0,10
09.03.2024 14:45:00 0,08
09.03.2024 15:45:00 0,08
09.03.2024 16:00:00 0,10
09.03.2024 16:15:00 0,10
09.03.2024 16:30:00 0,08
09.03.2024 16:45:00 0,08
09.03.2024 17:00:00 0,10
09.03.2024 17:15:00 0,10
09.03.2024 17:30:00 0,08
09.03.2024 18:00:00 0,08
09.03.2024 18:15:00 0,10
09.03.2024 18:30:00 0,08
09.03.2024 18:45:00 0,13
09.03.2024 19:00:00 0,08
09.03.2024 21:45:00 0,08
09.03.2024 22:00:00 0,10
09.03.2024 22:15:00 0,08
09.03.2024 22:30:00 0,08
09.03.2024 22:45:00 0,10
09.03.2024 23:00:00 0,08
09.03.2024 23:45:00 0,08
10.03.2024 00:00:00 0,10
10.03.2024 00:15:00 0,08
10.03.2024 00:30:00 0,10
10.03.2024 00:45:00 0,08
10.03.2024 01:00:00 0,08
10.03.2024 01:15:00 0,10
10.03.2024 01:30:00 0,08
10.03.2024 02:15:00 0,08
10.03.2024 02:30:00 0,10
10.03.2024 02:45:00 0,08
10.03.2024 07:00:00 0,08
10.03.2024 07:15:00 0,06
10.03.2024 07:30:00 0,08
10.03.2024 12:00:00 0,08
10.03.2024 12:15:00 0,10
10.03.2024 13:30:00 0,10
10.03.2024 13:45:00 0,08
10.03.2024 14:00:00 0,10
10.03.2024 14:30:00 0,10
10.03.2024 14:45:00 0,08
10.03.2024 17:45:00 0,08
10.03.2024 18:00:00 0,10
10.03.2024 18:15:00 0,08
11.03.2024 01:15:00 0,08
11.03.2024 01:30:00 0,10
11.03.2024 01:45:00 0,08
11.03.2024 06:00:00 0,08
11.03.2024 06:15:00 0,10
11.03.2024 06:30:00 0,08
11.03.2024 06:45:00 0,10
11.03.2024 07:00:00 0,08
11.03.2024 07:30:00 0,08
11.03.2024 07:45:00 0,06
11.03.2024 08:00:00 0,08
11.03.2024 14:30:00 0,08
11.03.2024 14:45:00 0,10
11.03.2024 16:45:00 0,10
11.03.2024 17:00:00 0,13
11.03.2024 17:30:00 0,13
11.03.2024 17:45:00 0,16
11.03.2024 18:00:00 0,16
11.03.2024 18:15:00 0,27
11.03.2024 18:30:00 0,27
11.03.2024 18:45:00 0,23
11.03.2024 19:15:00 0,23
11.03.2024 19:30:00 0,27
11.03.2024 20:00:00 0,35
11.03.2024 21:30:00 0,35
11.03.2024 21:45:00 0,40
11.03.2024 22:00:00 0,40
11.03.2024 22:15:00 0,35
11.03.2024 22:45:00 0,35
11.03.2024 23:00:00 0,40
11.03.2024 23:15:00 0,35
12.03.2024 00:45:00 0,35
12.03.2024 01:00:00 0,31
12.03.2024 03:00:00 0,31
12.03.2024 03:15:00 0,27
12.03.2024 04:45:00 0,27
12.03.2024 05:00:00 0,23
12.03.2024 08:00:00 0,23
12.03.2024 08:15:00 0,10
12.03.2024 08:30:00 0,19
12.03.2024 08:45:00 0,23
12.03.2024 11:00:00 0,23
12.03.2024 11:15:00 0,19
12.03.2024 11:30:00 0,23
12.03.2024 11:45:00 0,19
12.03.2024 12:00:00 0,19
12.03.2024 12:15:00 0,23
12.03.2024 12:30:00 0,19
12.03.2024 15:30:00 0,19
12.03.2024 15:45:00 0,16
12.03.2024 16:00:00 0,19
12.03.2024 16:15:00 0,19
12.03.2024 16:30:00 0,16
12.03.2024 17:00:00 0,16
12.03.2024 17:15:00 0,19
12.03.2024 17:30:00 0,16
12.03.2024 18:30:00 0,16
12.03.2024 19:00:00 0,23
12.03.2024 19:30:00 0,16
12.03.2024 19:45:00 0,19
12.03.2024 20:00:00 0,19
12.03.2024 20:15:00 0,16
12.03.2024 21:45:00 0,16
12.03.2024 22:00:00 0,19
12.03.2024 22:15:00 0,16
13.03.2024 07:15:00 0,16
13.03.2024 07:30:00 0,13
13.03.2024 07:45:00 0,16
13.03.2024 09:30:00 0,16
13.03.2024 09:45:00 0,13
13.03.2024 10:00:00 0,16
13.03.2024 10:15:00 0,13
13.03.2024 10:30:00 0,16
13.03.2024 15:30:00 0,16
13.03.2024 15:45:00 0,13
13.03.2024 18:30:00 0,13
13.03.2024 18:45:00 0,16
13.03.2024 19:00:00 0,13
14.03.2024 07:45:00 0,13
14.03.2024 08:00:00 0,10
14.03.2024 08:15:00 0,13
14.03.2024 12:45:00 0,13
14.03.2024 13:00:00 0,16
14.03.2024 13:15:00 0,13
14.03.2024 13:30:00 0,16
14.03.2024 13:45:00 0,16
14.03.2024 14:00:00 0,13
14.03.2024 19:15:00 0,13
14.03.2024 19:30:00 0,16
14.03.2024 19:45:00 0,13
15.03.2024 07:30:00 0,13
15.03.2024 07:45:00 0,10
15.03.2024 08:00:00 0,13
15.03.2024 12:45:00 0,13
15.03.2024 13:00:00 0,16
15.03.2024 13:15:00 0,13
15.03.2024 13:45:00 0,13
15.03.2024 14:00:00 0,16
15.03.2024 14:15:00 0,16
15.03.2024 14:30:00 0,13
15.03.2024 17:45:00 0,13
15.03.2024 18:00:00 0,10
15.03.2024 18:15:00 0,10
15.03.2024 18:45:00 0,16
15.03.2024 19:00:00 0,13
15.03.2024 21:30:00 0,13
15.03.2024 21:45:00 0,10
15.03.2024 22:00:00 0,13
16.03.2024 08:45:00 0,13
16.03.2024 09:00:00 0,10
16.03.2024 09:15:00 0,13
16.03.2024 09:30:00 0,13
16.03.2024 09:45:00 0,10
16.03.2024 10:00:00 0,13
16.03.2024 15:30:00 0,13
16.03.2024 15:45:00 0,16
16.03.2024 16:00:00 0,13
16.03.2024 16:15:00 0,13
16.03.2024 16:45:00 0,08
16.03.2024 17:00:00 0,13
16.03.2024 17:15:00 0,10
16.03.2024 17:30:00 0,10
16.03.2024 17:45:00 0,13
16.03.2024 18:00:00 0,10
16.03.2024 19:30:00 0,10
16.03.2024 19:45:00 0,13
16.03.2024 20:00:00 0,13
16.03.2024 20:15:00 0,10
16.03.2024 20:30:00 0,13
16.03.2024 20:45:00 0,10
16.03.2024 21:00:00 0,13
16.03.2024 21:15:00 0,10
16.03.2024 21:30:00 0,13
16.03.2024 21:45:00 0,10
16.03.2024 22:00:00 0,10
16.03.2024 22:15:00 0,13
16.03.2024 22:30:00 0,10
16.03.2024 22:45:00 0,13
16.03.2024 23:00:00 0,10
16.03.2024 23:15:00 0,13
16.03.2024 23:30:00 0,13
16.03.2024 23:45:00 0,10
17.03.2024 00:00:00 0,13
17.03.2024 01:45:00 0,13
17.03.2024 02:00:00 0,10
17.03.2024 02:15:00 0,13
17.03.2024 02:30:00 0,10
17.03.2024 02:45:00 0,10
17.03.2024 03:00:00 0,13
17.03.2024 06:45:00 0,13
17.03.2024 07:00:00 0,10
17.03.2024 07:15:00 0,13
17.03.2024 13:30:00 0,13
17.03.2024 13:45:00 0,16
17.03.2024 14:00:00 0,13
17.03.2024 16:45:00 0,13
17.03.2024 17:00:00 0,10
17.03.2024 18:30:00 0,10
17.03.2024 18:45:00 0,13
17.03.2024 19:00:00 0,10
17.03.2024 20:15:00 0,10
17.03.2024 20:30:00 0,13
17.03.2024 21:45:00 0,13
17.03.2024 22:00:00 0,10
17.03.2024 22:45:00 0,10
17.03.2024 23:00:00 0,13
17.03.2024 23:15:00 0,10
17.03.2024 23:45:00 0,10
18.03.2024 00:00:00 0,13
18.03.2024 00:15:00 0,10
18.03.2024 01:00:00 0,10
18.03.2024 01:15:00 0,13
18.03.2024 01:30:00 0,10
18.03.2024 02:30:00 0,10
18.03.2024 02:45:00 0,13
18.03.2024 03:00:00 0,13
18.03.2024 03:15:00 0,10
18.03.2024 03:45:00 0,10
18.03.2024 04:00:00 0,13
18.03.2024 04:30:00 0,13
18.03.2024 04:45:00 0,10
18.03.2024 05:00:00 0,13
18.03.2024 05:15:00 0,10
18.03.2024 06:00:00 0,10
18.03.2024 06:15:00 0,13
18.03.2024 07:15:00 0,13
18.03.2024 07:30:00 0,08
18.03.2024 07:45:00 0,10
18.03.2024 08:00:00 0,10
18.03.2024 08:15:00 0,13
18.03.2024 08:30:00 0,13
18.03.2024 08:45:00 0,10
18.03.2024 09:45:00 0,10
18.03.2024 10:00:00 0,13
18.03.2024 10:15:00 0,10
18.03.2024 10:30:00 0,13
18.03.2024 13:15:00 0,13
18.03.2024 13:30:00 0,10
18.03.2024 13:45:00 0,13
18.03.2024 14:15:00 0,13
18.03.2024 14:30:00 0,10
18.03.2024 15:00:00 0,10
18.03.2024 15:15:00 0,13
18.03.2024 15:30:00 0,10
18.03.2024 15:45:00 0,10
18.03.2024 16:00:00 0,13
18.03.2024 16:15:00 0,10
18.03.2024 16:45:00 0,10
18.03.2024 17:00:00 0,13
18.03.2024 17:15:00 0,13
18.03.2024 17:30:00 0,10
18.03.2024 17:45:00 0,13
18.03.2024 18:15:00 0,13
18.03.2024 18:30:00 0,10
18.03.2024 19:15:00 0,10
18.03.2024 19:30:00 0,13
18.03.2024 19:45:00 0,13
18.03.2024 20:00:00 0,10
18.03.2024 20:15:00 0,10
18.03.2024 20:30:00 0,13
18.03.2024 20:45:00 0,10
18.03.2024 23:00:00 0,10
18.03.2024 23:15:00 0,13
18.03.2024 23:30:00 0,10
19.03.2024 00:00:00 0,10
19.03.2024 00:15:00 0,13
19.03.2024 00:30:00 0,10
19.03.2024 02:45:00 0,10
19.03.2024 03:00:00 0,13
19.03.2024 03:15:00 0,10
19.03.2024 04:30:00 0,10
19.03.2024 04:45:00 0,13
19.03.2024 05:00:00 0,10
19.03.2024 05:15:00 0,13
19.03.2024 05:30:00 0,10
19.03.2024 08:00:00 0,10
19.03.2024 08:15:00 0,13
19.03.2024 08:30:00 0,10
19.03.2024 08:45:00 0,13
19.03.2024 09:45:00 0,13
19.03.2024 10:00:00 0,10
19.03.2024 10:15:00 0,13
19.03.2024 13:15:00 0,13
19.03.2024 13:30:00 0,16
19.03.2024 13:45:00 0,13
19.03.2024 15:00:00 0,13
19.03.2024 15:15:00 0,10
19.03.2024 15:30:00 0,13
19.03.2024 15:45:00 0,10
20.03.2024 04:00:00 0,10
20.03.2024 04:15:00 0,13
20.03.2024 04:30:00 0,10
20.03.2024 06:00:00 0,10
20.03.2024 06:15:00 0,13
20.03.2024 06:30:00 0,10
20.03.2024 07:45:00 0,10
20.03.2024 08:00:00 0,13
20.03.2024 08:15:00 0,10
20.03.2024 08:30:00 0,13
20.03.2024 08:45:00 0,13
20.03.2024 09:00:00 0,10
20.03.2024 09:15:00 0,10
20.03.2024 09:30:00 0,13
20.03.2024 15:15:00 0,13
20.03.2024 15:30:00 0,10
20.03.2024 15:45:00 0,10
20.03.2024 16:00:00 0,13
20.03.2024 16:15:00 0,10
21.03.2024 09:45:00 0,10
21.03.2024 10:00:00 0,13
21.03.2024 13:45:00 0,13
21.03.2024 14:00:00 0,10
21.03.2024 14:15:00 0,13
21.03.2024 14:45:00 0,13
21.03.2024 15:00:00 0,10
22.03.2024 08:15:00 0,10
22.03.2024 08:30:00 0,13
22.03.2024 08:45:00 0,13
22.03.2024 09:00:00 0,10
22.03.2024 10:45:00 0,10
22.03.2024 11:00:00 0,13
22.03.2024 12:15:00 0,13
22.03.2024 12:30:00 0,10
22.03.2024 12:45:00 0,10
22.03.2024 13:00:00 0,13
22.03.2024 14:15:00 0,13
22.03.2024 14:45:00 0,08
22.03.2024 15:00:00 0,10
22.03.2024 19:30:00 0,10
22.03.2024 19:45:00 0,13
22.03.2024 20:00:00 0,10
23.03.2024 06:00:00 0,10
23.03.2024 06:15:00 0,08
23.03.2024 06:30:00 0,10
23.03.2024 10:15:00 0,10
23.03.2024 10:30:00 0,13
23.03.2024 10:45:00 0,10
23.03.2024 11:00:00 0,13
23.03.2024 11:30:00 0,13
23.03.2024 11:45:00 0,10
23.03.2024 12:30:00 0,10
23.03.2024 12:45:00 0,13
23.03.2024 14:30:00 0,13
23.03.2024 14:45:00 0,10
23.03.2024 19:00:00 0,10
23.03.2024 19:15:00 0,13
23.03.2024 19:45:00 0,13
23.03.2024 20:00:00 0,10
23.03.2024 20:15:00 0,13
24.03.2024 00:45:00 0,13
24.03.2024 01:00:00 0,10
24.03.2024 01:15:00 0,10
24.03.2024 01:30:00 0,13
24.03.2024 01:45:00 0,10
24.03.2024 02:45:00 0,10
24.03.2024 03:00:00 0,13
24.03.2024 03:15:00 0,10
24.03.2024 05:00:00 0,10
24.03.2024 05:15:00 0,13
24.03.2024 05:30:00 0,10
24.03.2024 08:30:00 0,10
24.03.2024 08:45:00 0,08
24.03.2024 09:00:00 0,10
24.03.2024 10:15:00 0,10
24.03.2024 10:30:00 0,13
24.03.2024 10:45:00 0,10
24.03.2024 11:15:00 0,10
24.03.2024 11:30:00 0,13
24.03.2024 11:45:00 0,10
24.03.2024 12:30:00 0,10
24.03.2024 12:45:00 0,13
24.03.2024 13:30:00 0,13
24.03.2024 13:45:00 0,10
24.03.2024 14:00:00 0,13
24.03.2024 14:30:00 0,13
24.03.2024 14:45:00 0,10
24.03.2024 15:00:00 0,13
24.03.2024 15:15:00 0,10
25.03.2024 11:45:00 0,10
25.03.2024 12:00:00 0,13
25.03.2024 12:15:00 0,13
25.03.2024 12:30:00 0,10
25.03.2024 12:45:00 0,10
25.03.2024 13:00:00 0,13
25.03.2024 14:45:00 0,13
25.03.2024 15:00:00 0,10
26.03.2024 10:45:00 0,10
26.03.2024 11:00:00 0,13
26.03.2024 11:15:00 0,13
26.03.2024 11:30:00 0,10
26.03.2024 12:30:00 0,10
26.03.2024 12:45:00 0,13
26.03.2024 13:30:00 0,13
26.03.2024 13:45:00 0,10
26.03.2024 14:00:00 0,13
26.03.2024 14:15:00 0,10
27.03.2024 12:15:00 0,10
27.03.2024 12:30:00 0,13
27.03.2024 12:45:00 0,13
27.03.2024 13:00:00 0,10
27.03.2024 13:15:00 0,10
27.03.2024 13:30:00 0,13
27.03.2024 13:45:00 0,13
27.03.2024 14:00:00 0,10
28.03.2024 01:45:00 0,10
28.03.2024 02:00:00 0,10
28.03.2024 02:15:00 0,13
28.03.2024 02:30:00 0,13
28.03.2024 02:45:00 0,13
28.03.2024 03:00:00 0,13
28.03.2024 03:15:00 0,13
28.03.2024 03:30:00 0,13
28.03.2024 03:45:00 0,13
28.03.2024 04:00:00 0,13
28.03.2024 04:15:00 0,13
28.03.2024 04:30:00 0,13
28.03.2024 04:45:00 0,13
28.03.2024 05:00:00 0,13
28.03.2024 05:15:00 0,13
28.03.2024 05:30:00 0,13
28.03.2024 05:45:00 0,13
28.03.2024 06:00:00 0,13
28.03.2024 06:15:00 0,13
28.03.2024 06:30:00 0,13
28.03.2024 06:45:00 0,13
28.03.2024 07:00:00 0,13
28.03.2024 07:15:00 0,13
28.03.2024 07:30:00 0,10
28.03.2024 07:45:00 0,10
28.03.2024 08:00:00 0,13
28.03.2024 08:15:00 0,13
28.03.2024 08:30:00 0,13
28.03.2024 08:45:00 0,13
28.03.2024 09:00:00 0,13
28.03.2024 09:15:00 0,13
28.03.2024 09:30:00 0,10
28.03.2024 09:45:00 0,10
28.03.2024 10:00:00 0,13
28.03.2024 10:15:00 0,13
28.03.2024 10:30:00 0,13
28.03.2024 10:45:00 0,13
28.03.2024 11:00:00 0,13
28.03.2024 11:15:00 0,13
28.03.2024 11:30:00 0,13
28.03.2024 11:45:00 0,13
28.03.2024 12:00:00 0,13
28.03.2024 12:15:00 0,13
28.03.2024 12:30:00 0,13
28.03.2024 12:45:00 0,13
28.03.2024 13:00:00 0,13
28.03.2024 13:15:00 0,13
28.03.2024 13:30:00 0,13
28.03.2024 13:45:00 0,13
28.03.2024 14:00:00 0,13
28.03.2024 14:15:00 0,10
28.03.2024 14:30:00 0,10
28.03.2024 14:45:00 0,10
28.03.2024 15:00:00 0,10
28.03.2024 15:15:00 0,10
28.03.2024 15:30:00 0,10
28.03.2024 15:45:00 0,10
28.03.2024 16:00:00 0,10
28.03.2024 16:15:00 0,10
28.03.2024 16:30:00 0,10
28.03.2024 16:45:00 0,10
28.03.2024 17:00:00 0,10
28.03.2024 17:15:00 0,10
28.03.2024 17:30:00 0,10
28.03.2024 17:45:00 0,10
28.03.2024 18:00:00 0,10
28.03.2024 18:15:00 0,10
28.03.2024 18:30:00 0,10
28.03.2024 18:45:00 0,10
28.03.2024 19:00:00 0,10
28.03.2024 19:15:00 0,10
28.03.2024 19:30:00 0,10
28.03.2024 19:45:00 0,10
28.03.2024 20:00:00 0,10
28.03.2024 20:15:00 0,10
